TimeCST,TemperatureF,Dew PointF,Humidity,Sea Level PressureIn,VisibilityMPH,Wind Direction,Wind SpeedMPH,Gust SpeedMPH,PrecipitationIn,Events,Conditions,WindDirDegrees,DateUTC
12:53 AM,57.9,44.1,60,30.04,10.0,SSE,9.2,-,0.00,Rain,Light Rain,150,2013-11-04 06:53:00
1:53 AM,57.0,45.0,64,30.04,10.0,SSE,5.8,-,N/A,,Mostly Cloudy,150,2013-11-04 07:53:00
2:53 AM,57.0,44.1,62,30.07,10.0,South,6.9,-,N/A,,Clear,180,2013-11-04 08:53:00
3:53 AM,55.9,45.0,67,30.04,10.0,SSE,9.2,-,N/A,,Clear,160,2013-11-04 09:53:00
4:53 AM,55.9,46.0,69,30.04,10.0,SSE,10.4,-,N/A,,Clear,150,2013-11-04 10:53:00
5:53 AM,55.9,46.0,69,30.04,10.0,SSE,10.4,-,0.00,Rain,Light Rain,150,2013-11-04 11:53:00
6:53 AM,54.0,48.9,83,30.07,10.0,SSE,3.5,-,0.00,Rain,Light Rain,150,2013-11-04 12:53:00
7:53 AM,54.0,51.1,90,30.09,10.0,Variable,5.8,-,0.00,Rain,Light Rain,0,2013-11-04 13:53:00
8:53 AM,55.0,53.1,93,30.12,9.0,SE,6.9,-,0.03,Rain,Light Rain,130,2013-11-04 14:53:00
9:53 AM,55.9,55.0,97,30.13,9.0,ESE,6.9,-,0.03,Rain,Light Rain,120,2013-11-04 15:53:00
10:53 AM,55.9,55.0,97,30.11,6.0,SE,11.5,-,0.03,Rain,Light Rain,130,2013-11-04 16:53:00
11:53 AM,57.0,57.0,100,30.10,10.0,SE,9.2,-,0.01,Rain,Light Rain,140,2013-11-04 17:53:00
12:53 PM,57.9,57.9,100,30.07,10.0,SSE,8.1,-,0.02,Rain,Light Rain,150,2013-11-04 18:53:00
1:53 PM,59.0,59.0,100,30.07,10.0,SE,5.8,-,0.00,Rain,Light Rain,130,2013-11-04 19:53:00
2:53 PM,59.0,59.0,100,30.07,10.0,SE,5.8,-,0.01,Rain,Light Rain,140,2013-11-04 20:53:00
3:53 PM,60.1,59.0,96,30.05,10.0,ESE,4.6,-,0.00,,Overcast,120,2013-11-04 21:53:00
4:53 PM,60.1,60.1,100,30.06,5.0,East,3.5,-,0.02,Rain,Light Rain,80,2013-11-04 22:53:00
5:53 PM,60.1,60.1,100,30.07,7.0,East,4.6,-,0.03,Rain,Light Rain,90,2013-11-04 23:53:00
6:42 PM,60.8,60.8,100,30.09,4.0,East,4.6,-,0.03,Rain,Light Rain,90,2013-11-05 00:42:00
6:53 PM,60.1,60.1,100,30.09,3.0,East,3.5,-,0.05,Rain,Rain,100,2013-11-05 00:53:00
7:23 PM,60.8,60.8,100,30.09,4.0,East,4.6,-,0.05,Rain,Rain,80,2013-11-05 01:23:00
7:53 PM,60.1,60.1,100,30.09,4.0,ENE,4.6,-,0.09,Rain,Light Rain,70,2013-11-05 01:53:00
8:28 PM,60.8,60.8,100,30.10,2.5,ENE,5.8,-,0.07,Rain,Rain,70,2013-11-05 02:28:00
8:53 PM,60.1,60.1,100,30.10,2.5,East,4.6,-,0.12,Rain,Rain,90,2013-11-05 02:53:00
9:06 PM,60.8,60.8,100,30.10,3.0,East,5.8,-,0.03,Rain,Heavy Rain,90,2013-11-05 03:06:00
9:40 PM,60.8,60.8,100,30.10,4.0,East,5.8,-,0.11,Rain,Rain,80,2013-11-05 03:40:00
9:53 PM,60.1,60.1,100,30.10,3.0,East,6.9,-,0.14,Rain,Rain,80,2013-11-05 03:53:00
10:15 PM,60.8,60.8,100,30.10,2.5,East,8.1,-,0.09,Rain,Rain,90,2013-11-05 04:15:00
10:22 PM,60.8,60.8,100,30.10,3.0,East,6.9,-,0.10,Rain,Rain,80,2013-11-05 04:22:00
10:40 PM,60.8,60.8,100,30.11,2.5,East,5.8,-,0.15,Rain,Heavy Rain,80,2013-11-05 04:40:00
10:53 PM,60.1,60.1,100,30.10,2.5,East,6.9,-,0.20,Rain,Rain,90,2013-11-05 04:53:00
10:57 PM,60.8,60.8,100,30.10,3.0,East,6.9,-,0.01,Rain,Heavy Rain,80,2013-11-05 04:57:00
11:08 PM,60.8,60.8,100,30.10,3.0,East,6.9,-,0.04,Rain,Heavy Rain,90,2013-11-05 05:08:00
11:53 PM,61.0,61.0,100,30.08,4.0,East,6.9,-,0.10,Rain,Rain,80,2013-11-05 05:53:00